NORTHEAST SUFFOLK  -  Freeze Watch Freeze Watch        NORTHWEST SUFFOLK  -  Freeze Watch Freeze Watch        SOUTHEAST SUFFOLK  -  Freeze Watch Freeze Watch        SOUTHWEST SUFFOLK  -  Freeze Watch Freeze Watch      

Active alerts

Northwest Suffolk
  Details for Northwest Suffolk Freeze Watch
Southwest Suffolk
  Details for Southwest Suffolk Freeze Watch
Northeast Suffolk
  Details for Northeast Suffolk Freeze Watch
Southeast Suffolk
  Details for Southeast Suffolk Freeze Watch


WXM80 ListenWXM80 Stop

You find our weather info also at:

UK Metoffice

WeatherCloud

Weather Underground

Northeastern Weather Network

AWEKAS

Citizen Weather Observer Program (CWOP)

HAMweather, WeatherForYou, PWS Weather


Weather Underground History page Text

Daily Summary for December 6, 2017 Units:  English    Metric   Both
« Previous Day
Next Day »
Daily Weekly Monthly Yearly Custom
  High: Low: Average:
Temperature: 57.8 °F 39.3 °F 46.5 °F
Dew Point: 57.0 °F 24.2 °F 34.8 °F
Humidity: 97 % 48 % 65 %
Wind Speed: 12.6 mph 0.1 mph 4.5 mph
Wind Gust: 23.0 mph - -
Wind:- - WSW
Pressure: 30.01 in 29.78 in -
Precipitation: 0.01 in    
Historical Graphs
 
 
Tabular Data for December 6, 2017
Time Temperature Dew Point Pressure Wind Wind Speed Wind Gust Humidity Rainfall Rate (Hourly)
00:04 57.8 °F 56.7 °F 29.80 in SSW 3.3 mph 4.6 mph 96 % 0.01 in
00:09 57.7 °F 56.6 °F 29.80 in SSW 4.6 mph 10.0 mph 96 % 0.01 in
00:19 57.7 °F 56.6 °F 29.80 in SSW 3.7 mph 6.0 mph 96 % 0.00 in
00:24 57.6 °F 56.5 °F 29.80 in SW 5.3 mph 8.1 mph 96 % 0.00 in
00:29 57.6 °F 56.5 °F 29.81 in SSW 6.7 mph 11.0 mph 96 % 0.00 in
00:34 57.6 °F 56.5 °F 29.80 in SSW 3.0 mph 4.6 mph 96 % 0.00 in
00:39 57.6 °F 56.5 °F 29.80 in South 3.7 mph 8.1 mph 96 % 0.00 in
00:44 57.6 °F 56.5 °F 29.80 in SW 6.4 mph 10.4 mph 96 % 0.00 in
00:49 57.6 °F 56.5 °F 29.80 in SSW 6.4 mph 10.4 mph 96 % 0.00 in
00:54 57.6 °F 56.5 °F 29.80 in SSW 3.2 mph 5.8 mph 96 % 0.00 in
00:59 57.6 °F 56.5 °F 29.80 in SSW 4.9 mph 8.0 mph 96 % 0.00 in
01:04 57.6 °F 56.5 °F 29.79 in SSW 1.2 mph 4.6 mph 96 % 0.00 in
01:09 57.5 °F 56.4 °F 29.80 in SW 6.2 mph 9.2 mph 96 % 0.00 in
01:14 57.5 °F 56.4 °F 29.80 in WSW 5.8 mph 9.0 mph 96 % 0.00 in
01:19 57.6 °F 56.5 °F 29.80 in SSW 8.2 mph 11.0 mph 96 % 0.00 in
01:24 57.6 °F 56.8 °F 29.81 in South 3.7 mph 9.2 mph 97 % 0.00 in
01:29 57.6 °F 56.8 °F 29.81 in South 5.4 mph 9.0 mph 97 % 0.00 in
01:34 57.7 °F 56.9 °F 29.81 in South 4.5 mph 11.0 mph 97 % 0.00 in
01:39 57.7 °F 56.9 °F 29.81 in SSW 3.9 mph 10.4 mph 97 % 0.00 in
01:44 57.7 °F 56.9 °F 29.81 in SW 3.5 mph 12.0 mph 97 % 0.00 in
01:49 57.8 °F 57.0 °F 29.80 in South 4.3 mph 6.9 mph 97 % 0.00 in
01:54 57.7 °F 56.9 °F 29.80 in South 2.2 mph 6.9 mph 97 % 0.00 in
01:59 57.7 °F 56.9 °F 29.80 in SSW 5.0 mph 11.5 mph 97 % 0.00 in
02:04 57.7 °F 56.9 °F 29.80 in SW 3.3 mph 5.8 mph 97 % 0.00 in
02:09 57.7 °F 56.9 °F 29.80 in WSW 3.0 mph 5.8 mph 97 % 0.00 in
02:15 57.7 °F 56.9 °F 29.80 in WSW 5.2 mph 6.9 mph 97 % 0.00 in
02:20 57.7 °F 56.9 °F 29.80 in South 1.6 mph 8.1 mph 97 % 0.00 in
02:25 57.7 °F 56.9 °F 29.80 in SSW 3.9 mph 7.0 mph 97 % 0.00 in
02:30 57.7 °F 56.9 °F 29.79 in WSW 2.1 mph 5.8 mph 97 % 0.00 in
02:35 57.7 °F 56.9 °F 29.79 in WSW 2.5 mph 5.0 mph 97 % 0.00 in
02:40 57.7 °F 56.9 °F 29.79 in SW 2.0 mph 3.5 mph 97 % 0.00 in
02:45 57.6 °F 56.8 °F 29.80 in SW 1.1 mph 4.6 mph 97 % 0.00 in
02:50 57.6 °F 56.8 °F 29.80 in SW 3.7 mph 6.9 mph 97 % 0.00 in
02:55 57.6 °F 56.8 °F 29.80 in West 0.8 mph 3.5 mph 97 % 0.00 in
03:00 57.6 °F 56.8 °F 29.80 in WSW 2.4 mph 6.9 mph 97 % 0.00 in
03:05 57.6 °F 56.8 °F 29.80 in SW 4.8 mph 11.5 mph 97 % 0.00 in
03:10 57.6 °F 56.8 °F 29.79 in SSW 3.4 mph 6.9 mph 97 % 0.00 in
03:15 57.6 °F 56.8 °F 29.79 in SW 4.3 mph 6.9 mph 97 % 0.00 in
03:20 57.6 °F 56.8 °F 29.80 in SW 4.9 mph 10.4 mph 97 % 0.00 in
03:25 57.6 °F 56.8 °F 29.80 in SW 4.9 mph 9.2 mph 97 % 0.00 in
03:30 57.6 °F 56.8 °F 29.80 in SW 3.5 mph 6.9 mph 97 % 0.00 in
03:35 57.6 °F 56.8 °F 29.80 in SSW 5.5 mph 9.2 mph 97 % 0.00 in
03:40 57.5 °F 56.7 °F 29.80 in WSW 4.2 mph 6.9 mph 97 % 0.00 in
03:45 57.5 °F 56.7 °F 29.81 in SSW 3.9 mph 6.0 mph 97 % 0.00 in
03:50 57.5 °F 56.7 °F 29.81 in WSW 4.0 mph 6.9 mph 97 % 0.00 in
03:55 57.5 °F 56.7 °F 29.83 in NW 5.7 mph 11.0 mph 97 % 0.00 in
04:00 56.1 °F 53.8 °F 29.84 in NW 12.6 mph 19.6 mph 92 % 0.00 in
04:05 54.6 °F 50.8 °F 29.85 in WSW 10.1 mph 23.0 mph 87 % 0.00 in
04:10 53.4 °F 49.0 °F 29.84 in WNW 6.2 mph 14.0 mph 85 % 0.00 in
04:15 52.7 °F 48.3 °F 29.86 in WNW 4.4 mph 16.1 mph 85 % 0.00 in
04:20 52.2 °F 47.8 °F 29.87 in West 8.1 mph 13.0 mph 85 % 0.00 in
04:25 51.8 °F 47.7 °F 29.87 in WNW 4.0 mph 13.8 mph 86 % 0.00 in
04:30 51.4 °F 47.7 °F 29.87 in West 5.8 mph 8.0 mph 87 % 0.00 in
04:35 51.1 °F 47.4 °F 29.88 in WNW 2.9 mph 11.5 mph 87 % 0.00 in
04:40 50.8 °F 47.4 °F 29.87 in West 1.2 mph 7.0 mph 88 % 0.00 in
04:45 50.5 °F 47.1 °F 29.87 in West 5.3 mph 8.1 mph 88 % 0.00 in
04:55 50.0 °F 46.3 °F 29.86 in NW 3.3 mph 6.9 mph 87 % 0.00 in
05:00 49.8 °F 45.5 °F 29.86 in West 4.5 mph 9.2 mph 85 % 0.00 in
05:05 49.6 °F 45.3 °F 29.86 in SSW 4.9 mph 7.0 mph 85 % 0.00 in
05:10 49.5 °F 44.9 °F 29.86 in WSW 6.7 mph 10.4 mph 84 % 0.01 in
05:15 49.4 °F 44.8 °F 29.86 in WSW 3.3 mph 6.9 mph 84 % 0.01 in
05:20 49.4 °F 44.8 °F 29.86 in WSW 6.9 mph 10.0 mph 84 % 0.01 in
05:25 49.3 °F 44.4 °F 29.87 in WNW 4.0 mph 8.1 mph 83 % 0.01 in
05:30 49.2 °F 44.3 °F 29.87 in WSW 5.7 mph 9.0 mph 83 % 0.01 in
05:35 49.2 °F 43.6 °F 29.87 in WSW 6.1 mph 11.5 mph 81 % 0.01 in
05:41 49.1 °F 43.2 °F 29.87 in WSW 3.0 mph 10.0 mph 80 % 0.00 in
05:46 49.1 °F 43.2 °F 29.87 in SW 6.5 mph 11.5 mph 80 % 0.01 in
05:51 49.1 °F 42.9 °F 29.88 in WSW 6.0 mph 9.0 mph 79 % 0.00 in
05:56 49.1 °F 42.5 °F 29.88 in WSW 3.0 mph 14.0 mph 78 % 0.00 in
06:01 49.1 °F 42.2 °F 29.88 in SW 3.1 mph 11.0 mph 77 % 0.01 in
06:06 49.0 °F 41.8 °F 29.88 in WSW 7.0 mph 14.0 mph 76 % 0.00 in
06:11 49.0 °F 41.8 °F 29.88 in WSW 7.0 mph 13.0 mph 76 % 0.00 in
06:16 49.0 °F 41.4 °F 29.89 in WSW 5.0 mph 14.0 mph 75 % 0.00 in
06:21 49.0 °F 41.4 °F 29.89 in WSW 5.0 mph 15.0 mph 75 % 0.00 in
06:26 49.0 °F 41.4 °F 29.89 in WSW 6.0 mph 12.0 mph 75 % 0.00 in
06:31 49.0 °F 41.4 °F 29.89 in WSW 8.0 mph 10.0 mph 75 % 0.00 in
06:36 49.0 °F 40.7 °F 29.89 in WSW 6.0 mph 14.0 mph 73 % 0.00 in
06:41 49.0 °F 40.7 °F 29.89 in SW 5.0 mph 15.0 mph 73 % 0.00 in
06:46 49.0 °F 40.4 °F 29.90 in SW 3.0 mph 8.0 mph 72 % 0.00 in
06:51 49.0 °F 40.4 °F 29.89 in WSW 5.0 mph 12.0 mph 72 % 0.00 in
06:55 49.0 °F 40.4 °F 29.90 in WSW 3.0 mph 10.0 mph 72 % 0.00 in
07:01 49.0 °F 40.0 °F 29.90 in West 4.7 mph 6.9 mph 71 % 0.00 in
07:06 49.0 °F 39.6 °F 29.90 in West 4.2 mph 8.1 mph 70 % 0.00 in
07:11 49.0 °F 39.6 °F 29.90 in WSW 4.4 mph 8.1 mph 70 % 0.00 in
07:16 48.9 °F 39.2 °F 29.91 in WNW 5.8 mph 9.0 mph 69 % 0.00 in
07:21 48.9 °F 38.8 °F 29.91 in West 4.4 mph 8.1 mph 68 % 0.00 in
07:26 48.9 °F 38.8 °F 29.91 in WSW 2.9 mph 5.8 mph 68 % 0.00 in
07:31 48.9 °F 38.8 °F 29.92 in WSW 4.4 mph 6.9 mph 68 % 0.00 in
07:36 48.8 °F 37.9 °F 29.91 in West 2.6 mph 11.5 mph 66 % 0.00 in
07:41 48.8 °F 37.9 °F 29.92 in WNW 6.3 mph 11.5 mph 66 % 0.00 in
07:46 48.7 °F 37.5 °F 29.92 in WSW 7.5 mph 11.5 mph 65 % 0.00 in
07:51 48.7 °F 36.7 °F 29.92 in WNW 4.5 mph 8.1 mph 63 % 0.00 in
07:54 48.7 °F 37.1 °F 29.92 in West 3.0 mph 6.9 mph 64 % 0.00 in
07:59 48.6 °F 36.6 °F 29.93 in West 1.3 mph 3.5 mph 63 % 0.00 in
08:04 48.5 °F 36.5 °F 29.93 in SW 3.9 mph 7.0 mph 63 % 0.00 in
08:09 48.4 °F 36.4 °F 29.93 in West 7.0 mph 11.5 mph 63 % 0.00 in
08:10 48.4 °F 36.4 °F 29.93 in WSW 3.5 mph 9.2 mph 63 % 0.00 in
08:15 48.3 °F 36.7 °F 29.94 in NW 5.4 mph 11.5 mph 64 % 0.00 in
08:20 48.2 °F 36.2 °F 29.94 in West 6.3 mph 10.4 mph 63 % 0.00 in
08:25 48.1 °F 35.7 °F 29.94 in West 5.0 mph 15.0 mph 62 % 0.00 in
08:30 47.9 °F 35.9 °F 29.94 in WSW 5.6 mph 10.4 mph 63 % 0.00 in
08:35 47.9 °F 35.9 °F 29.94 in WNW 5.0 mph 11.0 mph 63 % 0.00 in
08:40 47.8 °F 35.8 °F 29.94 in SW 7.4 mph 11.5 mph 63 % 0.00 in
08:45 47.7 °F 35.7 °F 29.94 in West 5.5 mph 9.2 mph 63 % 0.00 in
08:50 47.6 °F 36.4 °F 29.95 in WNW 4.4 mph 9.2 mph 65 % 0.00 in
08:55 47.6 °F 36.8 °F 29.95 in West 6.0 mph 6.9 mph 66 % 0.00 in
09:00 47.4 °F 35.8 °F 29.95 in West 6.4 mph 12.7 mph 64 % 0.00 in
09:05 47.2 °F 35.2 °F 29.95 in WNW 5.7 mph 11.5 mph 63 % 0.00 in
09:10 47.0 °F 35.0 °F 29.96 in NW 4.1 mph 11.5 mph 63 % 0.00 in
09:15 46.8 °F 34.5 °F 29.96 in NW 7.3 mph 15.0 mph 62 % 0.00 in
09:19 46.7 °F 34.8 °F 29.96 in WNW 6.4 mph 9.2 mph 63 % 0.00 in
09:24 46.5 °F 34.6 °F 29.97 in WNW 4.7 mph 10.4 mph 63 % 0.00 in
09:29 46.3 °F 34.4 °F 29.97 in WSW 7.2 mph 12.7 mph 63 % 0.00 in
09:34 46.1 °F 34.2 °F 29.97 in NW 6.6 mph 12.7 mph 63 % 0.00 in
09:39 46.0 °F 33.7 °F 29.97 in NW 4.4 mph 9.2 mph 62 % 0.00 in
09:44 45.8 °F 33.9 °F 29.97 in WNW 7.0 mph 13.0 mph 63 % 0.00 in
09:49 45.6 °F 33.3 °F 29.97 in WNW 7.5 mph 11.5 mph 62 % 0.00 in
09:54 45.4 °F 32.7 °F 29.97 in NW 6.1 mph 8.1 mph 61 % 0.00 in
09:59 45.3 °F 33.0 °F 29.98 in West 5.7 mph 11.5 mph 62 % 0.00 in
10:04 45.1 °F 32.4 °F 29.97 in WNW 7.5 mph 12.7 mph 61 % 0.00 in
10:09 45.0 °F 31.9 °F 29.98 in NW 8.1 mph 12.7 mph 60 % 0.00 in
10:14 44.8 °F 31.8 °F 29.98 in West 7.2 mph 13.8 mph 60 % 0.00 in
10:19 44.7 °F 32.1 °F 29.99 in WNW 8.0 mph 16.1 mph 61 % 0.00 in
10:24 44.6 °F 32.4 °F 29.98 in WSW 3.5 mph 4.0 mph 62 % 0.00 in
10:29 44.5 °F 30.2 °F 29.98 in SSW 1.2 mph 8.1 mph 57 % 0.00 in
10:34 44.3 °F 28.7 °F 29.98 in WSW 4.2 mph 7.0 mph 54 % 0.00 in
10:39 44.3 °F 29.1 °F 29.98 in North 7.3 mph 10.0 mph 55 % 0.00 in
10:44 44.3 °F 30.0 °F 29.97 in WSW 6.1 mph 11.5 mph 57 % 0.00 in
10:45 44.3 °F 30.0 °F 29.97 in WNW 5.9 mph 11.5 mph 57 % 0.00 in
10:50 44.3 °F 29.1 °F 29.97 in West 6.2 mph 10.4 mph 55 % 0.00 in
10:55 44.3 °F 30.0 °F 29.98 in NW 2.5 mph 9.2 mph 57 % 0.00 in
11:00 44.3 °F 30.9 °F 29.97 in WNW 2.7 mph 5.8 mph 59 % 0.00 in
11:05 44.4 °F 31.4 °F 29.97 in WNW 5.8 mph 10.4 mph 60 % 0.00 in
11:10 44.5 °F 31.5 °F 29.96 in West 5.1 mph 15.0 mph 60 % 0.00 in
11:15 44.5 °F 31.9 °F 29.96 in West 6.3 mph 11.5 mph 61 % 0.00 in
11:20 44.6 °F 31.6 °F 29.96 in WNW 4.2 mph 8.1 mph 60 % 0.00 in
11:25 44.7 °F 32.5 °F 29.97 in SW 8.1 mph 11.5 mph 62 % 0.00 in
11:30 44.8 °F 33.0 °F 29.97 in West 3.8 mph 8.0 mph 63 % 0.00 in
11:40 44.7 °F 31.7 °F 29.97 in West 5.9 mph 11.5 mph 60 % 0.00 in
11:45 44.7 °F 31.7 °F 29.97 in West 7.8 mph 9.0 mph 60 % 0.00 in
11:50 44.6 °F 30.3 °F 29.96 in West 9.4 mph 19.6 mph 57 % 0.00 in
11:55 44.6 °F 29.4 °F 29.96 in WNW 7.6 mph 16.1 mph 55 % 0.00 in
12:00 44.5 °F 28.9 °F 29.96 in West 8.8 mph 12.0 mph 54 % 0.00 in
12:05 44.5 °F 28.9 °F 29.96 in WNW 5.3 mph 11.5 mph 54 % 0.00 in
12:10 44.4 °F 28.3 °F 29.96 in WNW 7.8 mph 16.0 mph 53 % 0.00 in
12:15 44.3 °F 28.7 °F 29.96 in NW 6.1 mph 13.8 mph 54 % 0.00 in
12:20 44.2 °F 28.1 °F 29.96 in SW 6.0 mph 10.0 mph 53 % 0.00 in
12:25 44.2 °F 27.7 °F 29.97 in WNW 5.4 mph 8.1 mph 52 % 0.00 in
12:30 44.2 °F 26.7 °F 29.96 in WNW 7.2 mph 11.5 mph 50 % 0.00 in
12:32 44.2 °F 26.7 °F 29.96 in WSW 7.7 mph 11.5 mph 50 % 0.00 in
12:37 44.3 °F 27.3 °F 29.96 in WSW 6.0 mph 12.7 mph 51 % 0.00 in
12:42 44.3 °F 25.8 °F 29.95 in West 3.0 mph 10.4 mph 48 % 0.00 in
12:47 44.3 °F 26.8 °F 29.95 in West 5.2 mph 8.1 mph 50 % 0.00 in
12:52 44.3 °F 27.3 °F 29.94 in WNW 6.9 mph 12.7 mph 51 % 0.00 in
12:57 44.2 °F 27.2 °F 29.94 in SW 8.3 mph 12.7 mph 51 % 0.00 in
13:02 44.0 °F 27.0 °F 29.94 in SW 6.4 mph 11.5 mph 51 % 0.00 in
13:07 43.8 °F 27.8 °F 29.94 in WSW 3.8 mph 6.0 mph 53 % 0.00 in
13:12 43.7 °F 27.7 °F 29.94 in WNW 2.9 mph 5.8 mph 53 % 0.00 in
13:17 43.7 °F 28.1 °F 29.94 in West 7.6 mph 10.4 mph 54 % 0.00 in
13:22 43.8 °F 28.2 °F 29.95 in SW 9.6 mph 15.0 mph 54 % 0.00 in
13:27 43.9 °F 27.4 °F 29.94 in WSW 5.2 mph 10.4 mph 52 % 0.00 in
13:32 44.0 °F 27.5 °F 29.94 in SW 7.0 mph 11.5 mph 52 % 0.00 in
13:37 44.0 °F 27.0 °F 29.94 in WSW 5.3 mph 11.5 mph 51 % 0.00 in
13:42 44.1 °F 27.1 °F 29.94 in West 4.0 mph 11.5 mph 51 % 0.00 in
13:47 44.2 °F 27.2 °F 29.94 in SW 8.0 mph 12.7 mph 51 % 0.00 in
13:52 44.3 °F 26.8 °F 29.93 in WNW 6.3 mph 11.5 mph 50 % 0.00 in
13:57 44.2 °F 26.7 °F 29.93 in WNW 5.3 mph 9.0 mph 50 % 0.00 in
14:02 44.1 °F 26.6 °F 29.93 in SW 2.0 mph 5.8 mph 50 % 0.00 in
14:07 44.0 °F 27.0 °F 29.93 in WNW 7.4 mph 11.5 mph 51 % 0.00 in
14:12 43.8 °F 25.9 °F 29.94 in West 3.9 mph 9.2 mph 49 % 0.00 in
14:17 43.7 °F 25.8 °F 29.93 in WSW 4.6 mph 13.8 mph 49 % 0.00 in
14:22 43.4 °F 26.0 °F 29.94 in WSW 4.1 mph 11.5 mph 50 % 0.00 in
14:27 43.3 °F 25.9 °F 29.94 in SW 4.4 mph 13.0 mph 50 % 0.00 in
14:32 43.2 °F 25.3 °F 29.94 in SW 6.0 mph 12.7 mph 49 % 0.00 in
14:37 43.0 °F 25.1 °F 29.94 in WSW 4.5 mph 9.2 mph 49 % 0.00 in
14:42 42.9 °F 25.5 °F 29.95 in WSW 3.5 mph 9.2 mph 50 % 0.00 in
14:47 42.9 °F 25.0 °F 29.95 in WSW 3.4 mph 12.7 mph 49 % 0.00 in
14:52 42.8 °F 24.9 °F 29.95 in SW 7.3 mph 7.3 mph 49 % 0.00 in
14:57 42.7 °F 24.8 °F 29.95 in SSW 4.5 mph 11.5 mph 49 % 0.00 in
15:03 42.7 °F 25.3 °F 29.95 in SW 2.2 mph 5.0 mph 50 % 0.00 in
15:08 42.6 °F 25.2 °F 29.95 in WSW 4.1 mph 8.1 mph 50 % 0.00 in
15:13 42.6 °F 25.2 °F 29.95 in WSW 1.3 mph 5.8 mph 50 % 0.00 in
15:18 42.5 °F 25.1 °F 29.95 in WSW 5.7 mph 6.9 mph 50 % 0.00 in
15:23 42.5 °F 24.7 °F 29.95 in West 5.2 mph 9.2 mph 49 % 0.00 in
15:28 42.4 °F 25.1 °F 29.94 in SW 5.7 mph 10.0 mph 50 % 0.00 in
15:33 42.4 °F 25.1 °F 29.95 in West 5.8 mph 11.5 mph 50 % 0.00 in
15:38 42.3 °F 25.0 °F 29.95 in West 1.1 mph 4.6 mph 50 % 0.00 in
15:43 42.3 °F 25.0 °F 29.95 in SW 5.9 mph 9.2 mph 50 % 0.00 in
15:48 42.2 °F 24.9 °F 29.95 in WSW 4.1 mph 6.0 mph 50 % 0.00 in
15:53 42.2 °F 24.9 °F 29.95 in WSW 7.0 mph 9.2 mph 50 % 0.00 in
15:58 42.1 °F 25.3 °F 29.95 in SW 0.9 mph 4.0 mph 51 % 0.00 in
16:03 42.0 °F 25.2 °F 29.95 in SSW 2.7 mph 5.0 mph 51 % 0.00 in
16:08 41.9 °F 25.1 °F 29.95 in SW 4.6 mph 6.9 mph 51 % 0.00 in
16:13 41.8 °F 25.0 °F 29.95 in SSW 3.0 mph 5.8 mph 51 % 0.00 in
16:18 41.7 °F 24.9 °F 29.95 in WSW 1.4 mph 3.5 mph 51 % 0.00 in
16:23 41.6 °F 24.8 °F 29.95 in SSW 3.7 mph 6.0 mph 51 % 0.00 in
16:28 41.5 °F 24.7 °F 29.96 in SW 1.6 mph 3.5 mph 51 % 0.00 in
16:33 41.5 °F 25.2 °F 29.96 in SSW 2.5 mph 4.6 mph 52 % 0.00 in
16:38 41.4 °F 25.1 °F 29.96 in SW 4.3 mph 8.1 mph 52 % 0.00 in
16:43 41.3 °F 25.0 °F 29.96 in SW 1.4 mph 4.6 mph 52 % 0.00 in
16:48 41.2 °F 25.3 °F 29.96 in SW 2.6 mph 6.9 mph 53 % 0.00 in
16:53 41.1 °F 25.3 °F 29.96 in SW 2.2 mph 6.9 mph 53 % 0.00 in
16:58 41.1 °F 25.3 °F 29.97 in WSW 4.1 mph 4.6 mph 53 % 0.00 in
17:03 41.0 °F 25.2 °F 29.97 in SW 3.0 mph 3.5 mph 53 % 0.00 in
17:08 41.0 °F 25.2 °F 29.97 in WSW 1.7 mph 6.0 mph 53 % 0.00 in
17:14 40.9 °F 25.1 °F 29.97 in WSW 2.0 mph 3.5 mph 53 % 0.00 in
17:19 40.9 °F 25.1 °F 29.97 in SW 2.4 mph 4.6 mph 53 % 0.00 in
17:24 40.8 °F 25.4 °F 29.97 in SW 2.8 mph 3.0 mph 54 % 0.00 in
17:29 40.8 °F 25.0 °F 29.97 in West 3.2 mph 5.0 mph 53 % 0.00 in
17:34 40.9 °F 24.6 °F 29.97 in WSW 3.6 mph 7.0 mph 52 % 0.00 in
17:39 41.0 °F 24.2 °F 29.97 in WSW 4.0 mph 10.4 mph 51 % 0.00 in
17:44 41.3 °F 25.0 °F 29.97 in SW 3.2 mph 5.8 mph 52 % 0.00 in
17:49 41.5 °F 24.7 °F 29.97 in West 6.7 mph 10.4 mph 51 % 0.00 in
17:54 41.7 °F 24.9 °F 29.98 in WSW 6.9 mph 12.7 mph 51 % 0.00 in
17:59 41.9 °F 25.1 °F 29.98 in West 5.9 mph 8.1 mph 51 % 0.00 in
18:04 42.0 °F 25.2 °F 29.98 in WNW 4.9 mph 8.1 mph 51 % 0.00 in
18:09 42.1 °F 25.7 °F 29.98 in NW 7.0 mph 11.5 mph 52 % 0.00 in
18:14 42.2 °F 25.8 °F 29.98 in West 3.1 mph 8.1 mph 52 % 0.00 in
18:19 42.2 °F 25.8 °F 29.98 in WSW 1.1 mph 4.6 mph 52 % 0.00 in
18:24 42.3 °F 25.9 °F 29.98 in WSW 4.4 mph 11.5 mph 52 % 0.00 in
18:29 42.3 °F 25.4 °F 29.97 in West 3.4 mph 8.1 mph 51 % 0.00 in
18:34 42.3 °F 25.0 °F 29.97 in SW 6.3 mph 8.1 mph 50 % 0.00 in
18:39 42.4 °F 25.1 °F 29.98 in WNW 6.6 mph 8.1 mph 50 % 0.00 in
18:45 42.4 °F 25.5 °F 29.97 in West 5.6 mph 8.1 mph 51 % 0.00 in
18:50 42.4 °F 25.5 °F 29.98 in NW 3.1 mph 4.0 mph 51 % 0.00 in
18:55 42.4 °F 25.5 °F 29.98 in WSW 6.2 mph 11.5 mph 51 % 0.00 in
19:00 42.4 °F 25.5 °F 29.98 in WNW 2.5 mph 8.1 mph 51 % 0.00 in
19:05 42.5 °F 25.6 °F 29.99 in WNW 2.1 mph 4.6 mph 51 % 0.00 in
19:10 42.5 °F 26.1 °F 29.99 in WNW 4.5 mph 6.9 mph 52 % 0.00 in
19:15 42.4 °F 25.5 °F 29.99 in West 4.5 mph 8.1 mph 51 % 0.00 in
19:20 42.4 °F 26.0 °F 29.99 in NW 5.1 mph 8.1 mph 52 % 0.00 in
19:25 42.4 °F 26.0 °F 29.99 in West 2.5 mph 4.6 mph 52 % 0.00 in
19:26 42.4 °F 26.0 °F 29.99 in WNW 3.9 mph 11.5 mph 52 % 0.00 in
19:31 42.4 °F 25.5 °F 29.99 in West 5.8 mph 10.4 mph 51 % 0.00 in
19:36 42.4 °F 25.5 °F 30.00 in WNW 4.1 mph 8.1 mph 51 % 0.00 in
19:41 42.4 °F 25.5 °F 29.99 in West 5.9 mph 8.1 mph 51 % 0.00 in
19:46 42.4 °F 25.5 °F 30.00 in WNW 3.9 mph 9.2 mph 51 % 0.00 in
19:52 42.4 °F 25.5 °F 29.99 in WSW 2.0 mph 9.2 mph 51 % 0.00 in
19:57 42.4 °F 25.1 °F 29.99 in WSW 6.1 mph 10.0 mph 50 % 0.00 in
20:02 42.4 °F 25.5 °F 29.99 in WSW 5.8 mph 8.1 mph 51 % 0.00 in
20:07 42.3 °F 25.4 °F 30.00 in West 2.3 mph 4.6 mph 51 % 0.00 in
20:09 42.3 °F 25.0 °F 29.99 in West 4.6 mph 8.1 mph 50 % 0.00 in
20:14 42.3 °F 25.9 °F 29.99 in WSW 2.7 mph 5.8 mph 52 % 0.00 in
20:19 42.2 °F 26.3 °F 29.99 in West 4.7 mph 8.1 mph 53 % 0.00 in
20:24 42.2 °F 26.3 °F 29.99 in West 4.8 mph 11.5 mph 53 % 0.00 in
20:29 42.2 °F 25.8 °F 29.99 in WSW 4.9 mph 9.2 mph 52 % 0.00 in
20:34 42.2 °F 25.8 °F 29.99 in WNW 3.6 mph 5.8 mph 52 % 0.00 in
20:39 42.1 °F 26.2 °F 30.00 in WNW 1.9 mph 4.6 mph 53 % 0.00 in
20:44 42.1 °F 26.2 °F 30.00 in WSW 1.3 mph 3.5 mph 53 % 0.00 in
20:49 42.1 °F 26.6 °F 30.00 in WSW 2.8 mph 4.6 mph 54 % 0.00 in
20:54 42.0 °F 26.1 °F 30.00 in SW 3.8 mph 6.9 mph 53 % 0.00 in
20:59 41.9 °F 26.0 °F 30.00 in West 2.1 mph 4.6 mph 53 % 0.00 in
21:04 41.9 °F 26.0 °F 30.00 in WSW 1.1 mph 3.5 mph 53 % 0.00 in
21:09 41.7 °F 25.8 °F 30.00 in South 1.2 mph 8.1 mph 53 % 0.00 in
21:14 41.6 °F 25.7 °F 30.00 in WSW 1.8 mph 3.5 mph 53 % 0.00 in
21:19 41.5 °F 26.1 °F 30.00 in SW 1.2 mph 4.6 mph 54 % 0.00 in
21:24 41.4 °F 26.0 °F 30.00 in West 4.1 mph 11.0 mph 54 % 0.00 in
21:29 41.3 °F 25.9 °F 30.00 in SW 4.2 mph 8.1 mph 54 % 0.00 in
21:34 41.2 °F 26.2 °F 30.00 in SW 4.0 mph 6.0 mph 55 % 0.00 in
21:39 41.1 °F 26.1 °F 30.01 in SW 3.4 mph 5.8 mph 55 % 0.00 in
21:44 41.0 °F 26.1 °F 30.01 in SW 5.5 mph 8.1 mph 55 % 0.00 in
21:49 40.9 °F 26.0 °F 30.00 in SE 4.4 mph 8.1 mph 55 % 0.00 in
21:54 40.8 °F 25.9 °F 30.00 in SW 3.8 mph 6.9 mph 55 % 0.00 in
21:59 40.8 °F 26.3 °F 30.00 in South 3.1 mph 11.5 mph 56 % 0.00 in
22:00 40.8 °F 26.3 °F 30.00 in WSW 2.3 mph 11.5 mph 56 % 0.00 in
22:05 40.7 °F 26.6 °F 30.00 in SW 0.2 mph 5.8 mph 57 % 0.00 in
22:10 40.7 °F 26.6 °F 30.00 in SW 5.2 mph 8.1 mph 57 % 0.00 in
22:15 40.7 °F 26.6 °F 30.00 in SW 2.2 mph 5.8 mph 57 % 0.00 in
22:20 40.7 °F 26.6 °F 30.00 in WSW 3.6 mph 5.0 mph 57 % 0.00 in
22:22 40.6 °F 26.5 °F 29.78 in WSW 3.8 mph 9.2 mph 57 % 0.00 in
22:23 40.6 °F 26.5 °F 29.78 in WSW 3.6 mph 9.2 mph 57 % 0.00 in
22:28 40.6 °F 26.1 °F 30.00 in SW 4.8 mph 5.8 mph 56 % 0.00 in
22:33 40.5 °F 25.6 °F 30.00 in WSW 2.9 mph 6.9 mph 55 % 0.00 in
22:38 40.5 °F 25.6 °F 30.00 in SSW 4.0 mph 9.2 mph 55 % 0.00 in
22:43 40.5 °F 25.6 °F 30.00 in SW 3.3 mph 5.8 mph 55 % 0.00 in
22:48 40.4 °F 25.5 °F 30.00 in WSW 2.3 mph 6.9 mph 55 % 0.00 in
22:53 40.4 °F 25.5 °F 30.00 in SSW 1.1 mph 3.5 mph 55 % 0.00 in
22:58 40.3 °F 25.0 °F 30.00 in WSW 2.2 mph 6.9 mph 54 % 0.00 in
23:03 40.2 °F 24.9 °F 30.00 in WSW 0.1 mph 1.2 mph 54 % 0.00 in
23:08 40.2 °F 25.3 °F 30.00 in SSW 2.5 mph 4.6 mph 55 % 0.00 in
23:13 40.0 °F 25.1 °F 30.00 in West 1.6 mph 5.8 mph 55 % 0.00 in
23:18 40.0 °F 25.6 °F 29.99 in SW 0.4 mph 1.2 mph 56 % 0.00 in
23:23 39.9 °F 25.5 °F 30.00 in SW 2.3 mph 4.0 mph 56 % 0.00 in
23:28 39.8 °F 25.4 °F 29.99 in SW 0.6 mph 3.5 mph 56 % 0.00 in
23:33 39.7 °F 25.7 °F 30.00 in South 0.3 mph 1.2 mph 57 % 0.00 in
23:38 39.6 °F 25.2 °F 29.99 in SW 2.6 mph 6.9 mph 56 % 0.00 in
23:43 39.5 °F 25.1 °F 29.99 in WSW 3.9 mph 8.1 mph 56 % 0.00 in
23:48 39.4 °F 25.0 °F 29.99 in SW 1.1 mph 3.5 mph 56 % 0.00 in
23:53 39.4 °F 25.0 °F 29.98 in SW 1.5 mph 5.8 mph 56 % 0.00 in
23:58 39.3 °F 25.3 °F 29.99 in SSW 3.4 mph 4.6 mph 57 % 0.00 in
Crab Meadow Weather
Compliments of Weather Underground - 3 mb

Script developed by  Jim McMurry - jmcmurry@mwt.net Adapted for the template by  Wim van der Kuil - Leuven-Template.eu

Lightning: Lightning can strike the same place twice and sometimes many times. The Empire State Building in New York City is struck an average of 23 times a year. During one thunderstorm it was struck 8 times in 24 minutes.